Middletown, OH

10:41 PM EST on December 16, 2017 (GMT -0500)
Hook Field Municipal

Weather History for KMWO - March, 2014

Change the Weather History Date:

Saturday, March 15, 2014

  Actual Average (KFFO) Record (KFFO)
Temperature  
Mean Temperature 45 °F -  
Max Temperature 55 °F 46 °F 72 °F (2012)
Min Temperature 35 °F 27 °F 16 °F (2017)
Degree Days  
Heating Degree Days 20    
Moisture  
Dew Point 26 °F    
Average Humidity 48    
Maximum Humidity 80    
Minimum Humidity 19    
Precipitation  
Precipitation 0.00 in - - ()
Sea Level Pressure  
Sea Level Pressure 30.04 in    
Wind  
Wind Speed 9 mph (WNW)    
Max Wind Speed 18 mph    
Max Gust Speed 25 mph    
Visibility 10 miles    
Events      
Averages and records for this station are not official NWS values.
T = Trace of Precipitation, MM = Missing Value Source: NWS Daily Summary

Daily Weather History Graph

Daily Weather History Graph

Search for Another Location

Airport or City:

Trip Planner

Search our weather history database for the weather conditions in past years. The results will help you decide how hot, cold, wet, or windy it might be!

Date:

Astronomy

Mar. 15, 2014 Rise Set
Actual Time 7:48 AM EDT 7:44 PM EDT
Civil Twilight 7:22 AM EDT 8:11 PM EDT
Nautical Twilight 6:51 AM EDT 8:42 PM EDT
Astronomical Twilight 6:19 AM EDT 9:14 PM EDT
Moon 7:03 PM EDT (3/15) 7:00 AM EDT (3/15)
Length of Visible Light 12h 49m
Length of Day
11h 55m
Waxing Gibbous, 99% of the Moon is Illuminated
Mar 15
Waxing Gibbous
Mar 16
Full
Mar 23
Last Quarter
Mar 30
New
Apr 7
First Quarter

Hourly Weather History & Observations

Time (EDT) Temp. Windchill Dew Point Humidity Pressure Visibility Wind Dir Wind Speed Gust Speed Precip Events Conditions
12:15 AM 50.2 °F - 36.9 °F 60% 29.91 in 10.0 mi NW 10.4 mph - N/A   Overcast
12:35 AM 49.3 °F - 35.2 °F 58% 29.91 in 10.0 mi WNW 8.1 mph - N/A   Overcast
12:55 AM 47.8 °F - 32.4 °F 55% 29.92 in 10.0 mi WNW 10.4 mph - N/A   Overcast
1:15 AM 47.7 °F - 30.6 °F 52% 29.92 in 10.0 mi WNW 10.4 mph 17.3 mph N/A   Overcast
1:35 AM 47.7 °F - 31.5 °F 53% 29.92 in 10.0 mi West 8.1 mph - N/A   Overcast
1:55 AM 47.7 °F - 34.2 °F 60% 29.92 in 10.0 mi West 6.9 mph - N/A   Overcast
2:15 AM 47.7 °F - 32.4 °F 55% 29.93 in 10.0 mi WNW 9.2 mph - N/A   Overcast
2:35 AM 47.7 °F - 32.2 °F 55% 29.94 in 10.0 mi WNW 8.1 mph - N/A   Overcast
2:55 AM 47.7 °F - 33.1 °F 57% 29.94 in 10.0 mi West 4.6 mph - N/A   Overcast
3:15 AM 47.7 °F - 34.0 °F 59% 29.95 in 10.0 mi West 5.8 mph - N/A   Overcast
3:35 AM 47.7 °F - 33.1 °F 57% 29.95 in 10.0 mi West 5.8 mph - N/A   Mostly Cloudy
3:55 AM 42.8 °F 38.0 °F 30.2 °F 61% 29.96 in 10.0 mi West 8.1 mph - N/A   Scattered Clouds
4:15 AM 42.8 °F 39.3 °F 30.2 °F 61% 29.96 in 10.0 mi West 5.8 mph - N/A   Scattered Clouds
4:35 AM 42.6 °F 37.8 °F 30.0 °F 61% 29.96 in 10.0 mi West 8.1 mph - N/A   Scattered Clouds
4:55 AM 40.3 °F 35.5 °F 29.3 °F 65% 29.97 in 10.0 mi WSW 6.9 mph - N/A   Clear
5:15 AM 40.1 °F 35.3 °F 29.8 °F 67% 29.97 in 10.0 mi WSW 6.9 mph - N/A   Clear
5:35 AM 37.6 °F 33.1 °F 29.1 °F 72% 29.98 in 10.0 mi WSW 5.8 mph - N/A   Clear
5:55 AM 38.7 °F 32.9 °F 29.7 °F 70% 29.98 in 10.0 mi SW 8.1 mph - N/A   Clear
6:15 AM 37.8 °F 32.5 °F 29.5 °F 72% 29.98 in 10.0 mi SW 6.9 mph - N/A   Clear
6:35 AM 37.6 °F 32.3 °F 29.5 °F 73% 29.98 in 10.0 mi SW 6.9 mph - N/A   Clear
6:55 AM 38.7 °F 34.3 °F 29.8 °F 71% 29.99 in 10.0 mi SW 5.8 mph - N/A   Clear
7:15 AM 38.8 °F 35.4 °F 29.5 °F 69% 30.00 in 10.0 mi WSW 4.6 mph - N/A   Clear
7:35 AM 35.6 °F 31.7 °F 28.0 °F 74% 30.00 in 10.0 mi WSW 4.6 mph - N/A   Clear
7:55 AM 35.1 °F 30.1 °F 29.3 °F 80% 30.01 in 10.0 mi SW 5.8 mph - N/A   Scattered Clouds
8:15 AM 35.1 °F 29.3 °F 28.9 °F 78% 30.02 in 10.0 mi SW 6.9 mph - N/A   Mostly Cloudy
8:35 AM 37.6 °F 32.3 °F 31.1 °F 77% 30.03 in 10.0 mi SW 6.9 mph - N/A   Scattered Clouds
8:55 AM 37.9 °F 33.5 °F 30.6 °F 75% 30.03 in 10.0 mi SW 5.8 mph - N/A   Mostly Cloudy
9:15 AM 40.1 °F 36.1 °F 31.5 °F 71% 30.05 in 10.0 mi SW 5.8 mph - N/A   Scattered Clouds
9:35 AM 41.5 °F 37.1 °F 31.3 °F 67% 30.05 in 10.0 mi SW 6.9 mph - N/A   Clear
9:55 AM 45.1 °F 41.4 °F 32.2 °F 60% 30.06 in 10.0 mi WSW 6.9 mph - N/A   Clear
10:15 AM 47.7 °F - 32.9 °F 57% 30.07 in 10.0 mi West 11.5 mph - N/A   Clear
10:35 AM 47.7 °F - 31.8 °F 54% 30.07 in 10.0 mi West 10.4 mph - N/A   Clear
10:55 AM 47.7 °F - 30.9 °F 52% 30.08 in 10.0 mi West 10.4 mph 19.6 mph N/A   Clear
11:15 AM 47.7 °F - 29.1 °F 49% 30.08 in 10.0 mi WNW 10.4 mph 17.3 mph N/A   Clear
11:35 AM 50.2 °F - 28.8 °F 44% 30.09 in 10.0 mi West 13.8 mph 20.7 mph N/A   Clear
11:55 AM 52.3 °F - 28.4 °F 40% 30.09 in 10.0 mi West 11.5 mph 17.3 mph N/A   Clear
12:15 PM 52.7 °F - 25.9 °F 35% 30.09 in 10.0 mi WNW 13.8 mph 19.6 mph N/A   Clear
12:35 PM 52.7 °F - 24.3 °F 33% 30.09 in 10.0 mi West 12.7 mph 18.4 mph N/A   Clear
12:55 PM 52.7 °F - 22.3 °F 31% 30.10 in 10.0 mi West 16.1 mph 25.3 mph N/A   Clear
1:15 PM 52.7 °F - 21.0 °F 29% 30.10 in 10.0 mi West 18.4 mph 23.0 mph N/A   Clear
1:35 PM 54.0 °F - 20.3 °F 27% 30.09 in 10.0 mi WNW 15.0 mph 20.7 mph N/A   Clear
2:15 PM 55.4 °F - 18.7 °F 24% 30.09 in 10.0 mi West 17.3 mph 23.0 mph N/A   Clear
2:35 PM 55.4 °F - 19.0 °F 24% 30.09 in 10.0 mi WSW 11.5 mph 19.6 mph N/A   Clear
2:55 PM 55.4 °F - 19.9 °F 25% 30.09 in 10.0 mi NW 13.8 mph 20.7 mph N/A   Clear
3:15 PM 55.4 °F - 17.8 °F 23% 30.08 in 10.0 mi West 15.0 mph 23.0 mph N/A   Clear
3:35 PM 55.4 °F - 17.1 °F 22% 30.08 in 10.0 mi WNW 12.7 mph 19.6 mph N/A   Clear
3:55 PM 55.4 °F - 16.2 °F 21% 30.08 in 10.0 mi NW 10.4 mph 20.7 mph N/A   Clear
4:15 PM 55.9 °F - 15.4 °F 20% 30.08 in 10.0 mi NW 6.9 mph 18.4 mph N/A   Clear
4:35 PM 55.4 °F - 14.5 °F 20% 30.08 in 10.0 mi NW 12.7 mph - N/A   Clear
4:55 PM 55.4 °F - 14.7 °F 20% 30.07 in 10.0 mi Calm Calm - N/A   Clear
5:15 PM 55.4 °F - 13.6 °F 19% 30.06 in 10.0 mi WNW 8.1 mph - N/A   Clear
5:35 PM 55.4 °F - 15.1 °F 20% 30.06 in 10.0 mi WNW 4.6 mph - N/A   Clear
5:55 PM 55.4 °F - 14.4 °F 20% 30.07 in 10.0 mi NNW 6.9 mph - N/A   Clear
6:15 PM 55.4 °F - 15.6 °F 21% 30.08 in 10.0 mi NW 6.9 mph - N/A   Clear
6:35 PM 55.4 °F - 14.7 °F 20% 30.08 in 10.0 mi NNW 4.6 mph - N/A   Clear
6:55 PM 54.0 °F - 14.5 °F 21% 30.08 in 10.0 mi NW 9.2 mph - N/A   Clear
7:15 PM 52.7 °F - 14.4 °F 22% 30.08 in 10.0 mi North 6.9 mph - N/A   Clear
7:35 PM 52.7 °F - 15.8 °F 23% 30.08 in 10.0 mi North 5.8 mph - N/A   Clear
7:55 PM 52.7 °F - 16.0 °F 23% 30.08 in 10.0 mi North 3.5 mph - N/A   Clear
8:15 PM 47.7 °F - 19.4 °F 33% 30.08 in 10.0 mi North 3.5 mph - N/A   Clear
8:35 PM 47.7 °F - 22.8 °F 38% 30.09 in 10.0 mi North 3.5 mph - N/A   Clear
8:55 PM 44.1 °F 41.5 °F 23.7 °F 45% 30.10 in 10.0 mi North 4.6 mph - N/A   Clear
9:15 PM 45.1 °F 40.8 °F 23.7 °F 43% 30.10 in 10.0 mi NNE 8.1 mph - N/A   Clear
9:35 PM 45.1 °F 40.8 °F 25.3 °F 46% 30.11 in 10.0 mi NNE 8.1 mph - N/A   Clear
9:55 PM 44.6 °F 40.2 °F 26.6 °F 49% 30.12 in 10.0 mi NNE 8.1 mph - N/A   Clear
10:15 PM 42.6 °F 37.8 °F 26.6 °F 53% 30.13 in 10.0 mi NNE 8.1 mph - N/A   Clear
10:35 PM 41.4 °F 35.2 °F 27.0 °F 57% 30.12 in 10.0 mi NNE 10.4 mph - N/A   Clear
10:55 PM 41.0 °F 34.7 °F 27.1 °F 58% 30.12 in 10.0 mi NE 10.4 mph - N/A   Clear
11:15 PM 40.8 °F 33.7 °F 26.6 °F 57% 30.12 in 10.0 mi NE 12.7 mph 18.4 mph N/A   Clear
11:35 PM 40.1 °F 33.2 °F 26.6 °F 59% 30.14 in 10.0 mi NNE 11.5 mph - N/A   Clear
11:55 PM 39.7 °F 32.3 °F 27.1 °F 61% 30.14 in 10.0 mi NNE 12.7 mph - N/A   Clear